Location: Greenspot (historical)
(34.0858°N, 117.1109°W)
Time: 06:24:00
(UTC+00:00)

Meteor 1-23 Rocket - Pass Details

Date: 18 April 2024
Orbit: 842 x 882 km, 81.3° (Epoch: 28 May)

Event Time Altitude Azimuth Distance (km) Brightness Sun altitude
Rises 12:43:50 0° 194° (SSW) 3,437 7.1 -6.6°
Reaches altitude 10° 12:46:17 10° 197° (SSW) 2,498 6.3 -6.2°
Maximum altitude 12:51:55 67° 279° (W) 929 4.3 -5.0°
Drops below altitude 10° 12:57:32 10° 2° (N) 2,485 6.9 -3.9°
Sets 12:59:58 0° 5° (N) 3,419 7.7 -3.4°
